Voltar ao catálogo

COSMOS 970 DEB

AtivoLEO
NORAD 64978·DEBRIS·🇷🇺 Russia

Lançado Dec 21, 1977 de Baikonur Cosmodrome

Loading…

Próximas Passagens (próximas 24 horas)

TLE

ObsoletoSource: Space-Track

Época: Aug 24, 2026, 05:30 UTC

1 64978U 77121CP  26236.22923591  .00001234  00000-0  87977-3 0  9995
2 64978  65.6412 175.0306 0091507 247.6311 111.5047 13.99099900626460

Acompanhe COSMOS 970 DEB em tempo real com AllMySat

Download on the App Store